Grosse Ile, MI

5:00 PM EDT on April 24, 2018 (GMT -0400)
Grosse Ile Municipal

Weather History for KONZ - August, 2014

Change the Weather History Date:

Friday, August 15, 2014

  Actual Average (KDTW) Record (KDTW)
Temperature  
Mean Temperature 63 °F -  
Max Temperature 75 °F 81 °F 97 °F (1965)
Min Temperature 51 °F 61 °F 46 °F (1979)
Degree Days  
Heating Degree Days 2    
Growing Degree Days 13 (Base 50)    
Moisture  
Dew Point 48 °F    
Average Humidity 58    
Maximum Humidity 82    
Minimum Humidity 33    
Precipitation  
Precipitation 0.00 in - - ()
Sea Level Pressure  
Sea Level Pressure 30.00 in    
Wind  
Wind Speed 5 mph (WNW)    
Max Wind Speed 10 mph    
Max Gust Speed -    
Visibility 10 miles    
Events      
Averages and records for this station are not official NWS values.
T = Trace of Precipitation, MM = Missing Value Source: NWS Daily Summary

Daily Weather History Graph

Daily Weather History Graph

Search for Another Location

Airport or City:

Astronomy

Aug. 15, 2014 Rise Set
Actual Time 6:40 AM EDT 8:33 PM EDT
Civil Twilight 6:10 AM EDT 9:03 PM EDT
Nautical Twilight 5:33 AM EDT 9:39 PM EDT
Astronomical Twilight 4:53 AM EDT 10:19 PM EDT
Moon 11:27 PM EDT (8/15) 12:28 PM EDT (8/15)
Length of Visible Light 14h 53m
Length of Day
13h 52m
Waning Gibbous, 69% of the Moon is Illuminated
Aug 15
Waning Gibbous
Aug 17
Last Quarter
Aug 25
New
Sep 2
First Quarter
Sep 8
Full

Hourly Weather History & Observations

Time (EDT) Temp. Dew Point Humidity Pressure Visibility Wind Dir Wind Speed Gust Speed Precip Events Conditions
12:14 AM 60.8 °F 48.2 °F 63% 30.00 in 10.0 mi WNW 4.6 mph - N/A   Clear
12:34 AM 57.2 °F 48.2 °F 72% 30.00 in 10.0 mi NW 5.8 mph - N/A   Clear
12:54 AM 57.2 °F 48.2 °F 72% 30.00 in 10.0 mi WNW 3.5 mph - N/A   Clear
1:14 AM 57.2 °F 48.2 °F 72% 30.00 in 10.0 mi WNW 4.6 mph - N/A   Clear
1:34 AM 57.2 °F 48.2 °F 72% 30.00 in 10.0 mi NW 5.8 mph - N/A   Clear
1:54 AM 57.2 °F 48.2 °F 72% 30.00 in 10.0 mi NW 6.9 mph - N/A   Clear
2:14 AM 57.2 °F 48.2 °F 72% 30.00 in 10.0 mi NW 5.8 mph - N/A   Clear
2:33 AM 57.2 °F 48.2 °F 72% 30.00 in 10.0 mi WNW 5.8 mph - N/A   Clear
2:54 AM 55.4 °F 48.2 °F 77% 30.00 in 10.0 mi NW 3.5 mph - N/A   Clear
3:14 AM 55.4 °F 48.2 °F 77% 30.00 in 10.0 mi WNW 4.6 mph - N/A   Clear
3:34 AM 53.6 °F 48.2 °F 82% 30.00 in 10.0 mi WNW 4.6 mph - N/A   Clear
3:54 AM 55.4 °F 48.2 °F 77% 30.00 in 10.0 mi NW 4.6 mph - N/A   Clear
4:15 AM 55.4 °F 46.4 °F 72% 30.00 in 10.0 mi WNW 6.9 mph - N/A   Clear
4:34 AM 55.4 °F 46.4 °F 72% 30.01 in 10.0 mi WNW 5.8 mph - N/A   Clear
4:54 AM 53.6 °F 46.4 °F 77% 30.01 in 10.0 mi WNW 4.6 mph - N/A   Clear
5:15 AM 53.6 °F 46.4 °F 77% 30.02 in 10.0 mi WNW 5.8 mph - N/A   Clear
5:34 AM 51.8 °F 46.4 °F 82% 30.02 in 10.0 mi West 4.6 mph - N/A   Clear
5:54 AM 51.8 °F 46.4 °F 82% 30.03 in 10.0 mi WNW 6.9 mph - N/A   Clear
6:14 AM 51.8 °F 46.4 °F 82% 30.03 in 10.0 mi WNW 5.8 mph - N/A   Clear
6:34 AM 51.8 °F 46.4 °F 82% 30.03 in 10.0 mi NW 5.8 mph - N/A   Clear
6:54 AM 51.8 °F 46.4 °F 82% 30.03 in 10.0 mi WNW 8.1 mph - N/A   Clear
7:14 AM 51.8 °F 46.4 °F 82% 30.03 in 10.0 mi NW 4.6 mph - N/A   Clear
7:34 AM 51.8 °F 46.4 °F 82% 30.03 in 10.0 mi NW 5.8 mph - N/A   Clear
7:54 AM 53.6 °F 46.4 °F 77% 30.04 in 10.0 mi WNW 6.9 mph - N/A   Clear
8:14 AM 55.4 °F 46.4 °F 72% 30.03 in 10.0 mi NW 5.8 mph - N/A   Clear
8:34 AM 55.4 °F 46.4 °F 72% 30.03 in 10.0 mi NW 5.8 mph - N/A   Clear
8:54 AM 57.2 °F 46.4 °F 67% 30.04 in 10.0 mi WNW 5.8 mph - N/A   Clear
9:14 AM 59.0 °F 46.4 °F 63% 30.05 in 10.0 mi NNW 8.1 mph - N/A   Clear
9:34 AM 60.8 °F 46.4 °F 59% 30.04 in 10.0 mi WNW 5.8 mph - N/A   Clear
10:14 AM 62.6 °F 44.6 °F 52% 30.05 in 10.0 mi NW 6.9 mph - N/A   Clear
10:34 AM 64.4 °F 44.6 °F 49% 30.05 in 10.0 mi WNW 4.6 mph - N/A   Clear
10:54 AM 64.4 °F 44.6 °F 49% 30.05 in 10.0 mi West 3.5 mph - N/A   Clear
11:14 AM 66.2 °F 44.6 °F 46% 30.05 in 10.0 mi WNW 5.8 mph - N/A   Clear
11:34 AM 66.2 °F 46.4 °F 49% 30.05 in 10.0 mi Calm Calm - N/A   Clear
11:54 AM 66.2 °F 44.6 °F 46% 30.04 in 10.0 mi WNW 6.9 mph - N/A   Clear
12:14 PM 69.8 °F 46.4 °F 43% 30.04 in 10.0 mi West 6.9 mph - N/A   Clear
12:34 PM 69.8 °F 44.6 °F 40% 30.04 in 10.0 mi WNW 4.6 mph - N/A   Clear
12:54 PM 69.8 °F 44.6 °F 40% 30.04 in 10.0 mi WNW 6.9 mph - N/A   Clear
1:15 PM 69.8 °F 46.4 °F 43% 30.03 in 10.0 mi WNW 9.2 mph - N/A   Clear
1:34 PM 71.6 °F 44.6 °F 38% 30.03 in 10.0 mi NW 9.2 mph - N/A   Clear
1:54 PM 71.6 °F 42.8 °F 35% 30.03 in 10.0 mi NW 6.9 mph - N/A   Clear
2:14 PM 71.6 °F 46.4 °F 41% 30.02 in 10.0 mi WNW 8.1 mph - N/A   Clear
2:34 PM 73.4 °F 42.8 °F 33% 30.02 in 10.0 mi NNW 9.2 mph - N/A   Clear
2:54 PM 73.4 °F 44.6 °F 36% 30.01 in 10.0 mi WNW 6.9 mph - N/A   Clear
3:14 PM 73.4 °F 48.2 °F 41% 30.01 in 10.0 mi West 6.9 mph - N/A   Clear
3:34 PM 73.4 °F 44.6 °F 36% 30.00 in 10.0 mi WNW 9.2 mph - N/A   Clear
3:54 PM 73.4 °F 46.4 °F 38% 30.00 in 10.0 mi WNW 8.1 mph - N/A   Clear
4:14 PM 73.4 °F 48.2 °F 41% 29.99 in 10.0 mi West 5.8 mph - N/A   Clear
4:34 PM 75.2 °F 46.4 °F 36% 29.99 in 10.0 mi West 8.1 mph - N/A   Scattered Clouds
4:54 PM 73.4 °F 46.4 °F 38% 29.99 in 10.0 mi West 9.2 mph - N/A   Scattered Clouds
5:14 PM 73.4 °F 48.2 °F 41% 29.98 in 10.0 mi West 6.9 mph - N/A   Scattered Clouds
5:34 PM 73.4 °F 46.4 °F 38% 29.98 in 10.0 mi WSW 5.8 mph - N/A   Scattered Clouds
5:54 PM 73.4 °F 48.2 °F 41% 29.97 in 10.0 mi West 5.8 mph - N/A   Scattered Clouds
6:14 PM 73.4 °F 46.4 °F 38% 29.97 in 10.0 mi West 3.5 mph - N/A   Scattered Clouds
6:34 PM 73.4 °F 48.2 °F 41% 29.97 in 10.0 mi West 8.1 mph - N/A   Clear
6:54 PM 73.4 °F 48.2 °F 41% 29.96 in 10.0 mi WSW 10.4 mph - N/A   Scattered Clouds
7:14 PM 73.4 °F 50.0 °F 44% 29.96 in 10.0 mi West 3.5 mph - N/A   Clear
7:34 PM 71.6 °F 50.0 °F 46% 29.96 in 10.0 mi WSW 5.8 mph - N/A   Clear
7:54 PM 71.6 °F 50.0 °F 46% 29.96 in 10.0 mi WSW 4.6 mph - N/A   Clear
8:14 PM 69.8 °F 50.0 °F 49% 29.96 in 10.0 mi Calm Calm - N/A   Clear
8:35 PM 69.8 °F 51.8 °F 53% 29.96 in 10.0 mi SSW 3.5 mph - N/A   Clear
8:54 PM 69.8 °F 51.8 °F 53% 29.96 in 10.0 mi SW 3.5 mph - N/A   Clear
9:14 PM 68.0 °F 53.6 °F 60% 29.96 in 10.0 mi SW 4.6 mph - N/A   Clear
9:34 PM 68.0 °F 53.6 °F 60% 29.97 in 10.0 mi SW 3.5 mph - N/A   Clear
9:54 PM 66.2 °F 53.6 °F 64% 29.97 in 10.0 mi Calm Calm - N/A   Clear
10:14 PM 66.2 °F 53.6 °F 64% 29.97 in 10.0 mi WSW 3.5 mph - N/A   Clear
10:34 PM 66.2 °F 53.6 °F 64% 29.97 in 10.0 mi SW 4.6 mph - N/A   Clear
10:54 PM 66.2 °F 53.6 °F 64% 29.97 in 10.0 mi WSW 3.5 mph - N/A   Clear
11:14 PM 64.4 °F 53.6 °F 68% 29.97 in 10.0 mi WSW 4.6 mph - N/A   Clear
11:34 PM 64.4 °F 53.6 °F 68% 29.97 in 10.0 mi WSW 4.6 mph - N/A   Clear
11:54 PM 64.4 °F 53.6 °F 68% 29.97 in 10.0 mi West 3.5 mph - N/A   Clear